Rome, NY

5:17 PM EST on November 11, 2019 (GMT -0500)
Griffiss

Weather History for KRME - September, 2019

Change the Weather History Date:

Friday, September 6, 2019

  Actual Average Record
Temperature  
Mean Temperature 60 °F -  
Max Temperature 73 °F 75 °F 89 °F (2015)
Min Temperature 48 °F 55 °F 39 °F (2013)
Degree Days  
Heating Degree Days 4    
Growing Degree Days 10 (Base 50)    
Moisture  
Dew Point 52 °F    
Average Humidity 73    
Maximum Humidity 100    
Minimum Humidity 41    
Precipitation  
Precipitation 0.00 in - - ()
Sea Level Pressure  
Sea Level Pressure 29.95 in    
Wind  
Wind Speed 6 mph (ESE)    
Max Wind Speed 17 mph    
Max Gust Speed 23 mph    
Visibility 10 miles    
Events Rain    
Averages and records for this station are not official NWS values.
T = Trace of Precipitation, MM = Missing Value Source: NWS Daily Summary

Daily Weather History Graph

Daily Weather History Graph

Search for Another Location

Airport or City:

Astronomy

Sep. 06, 2019 Rise Set
Actual Time 6:31 AM EDT 7:28 PM EDT
Civil Twilight 6:01 AM EDT 7:57 PM EDT
Nautical Twilight 5:27 AM EDT 8:31 PM EDT
Astronomical Twilight 4:51 AM EDT 9:07 PM EDT
Moon 2:49 PM EDT (9/6) No Moon Set
Length of Visible Light 13h 55m
Length of Day
12h 57m
First Quarter, 55% of the Moon is Illuminated
Sep 6
First Quarter
Sep 14
Full
Sep 21
Last Quarter
Sep 28
New
Oct 5
First Quarter

Hourly Weather History & Observations

Time (EDT) Temp. Dew Point Humidity Pressure Visibility Wind Dir Wind Speed Gust Speed Precip Events Conditions
12:53 AM 51.1 °F 50.0 °F 96% 30.06 in 10.0 mi ESE 4.6 mph - N/A   Clear
1:53 AM 50.0 °F 50.0 °F 100% 30.06 in 10.0 mi ESE 3.5 mph - N/A   Clear
2:53 AM 48.9 °F 48.9 °F 100% 30.05 in 10.0 mi ESE 3.5 mph - N/A   Clear
3:53 AM 50.0 °F 48.9 °F 96% 30.04 in 10.0 mi SE 3.5 mph - N/A   Clear
4:53 AM 50.0 °F 48.9 °F 96% 30.04 in 10.0 mi East 4.6 mph - N/A   Clear
5:53 AM 51.1 °F 50.0 °F 96% 30.04 in 10.0 mi East 3.5 mph - N/A   Clear
6:53 AM 48.9 °F 48.0 °F 97% 30.04 in 10.0 mi Calm Calm - N/A   Clear
7:53 AM 52.0 °F 50.0 °F 93% 30.04 in 10.0 mi Calm Calm - N/A   Clear
8:53 AM 59.0 °F 54.0 °F 83% 30.03 in 10.0 mi ESE 6.9 mph - N/A   Clear
9:53 AM 63.0 °F 55.9 °F 78% 30.00 in 10.0 mi SE 8.1 mph - N/A   Clear
10:53 AM 66.9 °F 53.1 °F 61% 29.98 in 10.0 mi SE 12.7 mph - N/A   Clear
11:53 AM 70.0 °F 52.0 °F 53% 29.96 in 10.0 mi SE 11.5 mph - N/A   Clear
12:53 PM 72.0 °F 51.1 °F 48% 29.94 in 10.0 mi SE 12.7 mph - N/A   Clear
1:53 PM 73.0 °F 48.0 °F 41% 29.92 in 10.0 mi SE 12.7 mph - N/A   Clear
2:53 PM 73.9 °F 51.1 °F 45% 29.90 in 10.0 mi SE 17.3 mph 23.0 mph N/A   Clear
3:53 PM 73.0 °F 51.1 °F 46% 29.87 in 10.0 mi SE 12.7 mph - N/A   Clear
4:53 PM 72.0 °F 52.0 °F 49% 29.86 in 10.0 mi SE 11.5 mph - N/A   Clear
5:53 PM 71.1 °F 53.1 °F 53% 29.86 in 10.0 mi SE 10.4 mph - N/A   Clear
6:53 PM 68.0 °F 54.0 °F 61% 29.86 in 10.0 mi SE 6.9 mph - N/A   Clear
7:53 PM 64.0 °F 53.1 °F 67% 29.87 in 10.0 mi SE 5.8 mph - N/A   Clear
8:53 PM 64.0 °F 53.1 °F 67% 29.86 in 10.0 mi East 9.2 mph - N/A   Clear
9:53 PM 63.0 °F 54.0 °F 72% 29.86 in 10.0 mi East 5.8 mph - 0.00 in Rain Light Rain
10:53 PM 62.1 °F 54.0 °F 75% 29.85 in 10.0 mi Calm Calm - 0.00 in   Mostly Cloudy
11:53 PM 59.0 °F 55.0 °F 87% 29.84 in 10.0 mi Calm Calm - N/A   Overcast